Temperature
20 20 19 19 18 18 18 18 18 18 18 17 17 17 17 17 16 16 16 15 14 14 14 13 14 13 13 13 14 13 14 14 14 15 15 15 16 17 17 17 17 17 17
20 20 20 19 19 19 18 18 18 18 18 17 17 17 17 16 16 16 15 15 14 13 13 13 13 13 13 13 13 13 13 13 14 14 14 15 16 17 17 17 17 17 17
21 20 20 20 19 19 19 19 18 18 17 17 17 16 16 16 16 16 15 15 14 13 13 13 12 12 13 13 13 13 13 13 13 14 14 14 15 15 16 16 16 16 16
21 21 20 20 20 20 19 19 18 18 17 17 16 16 16 16 16 15 15 14 14 13 13 12 12 12 12 12 12 13 13 13 13 13 14 14 14 14 14 16 16 16 16
22 21 21 21 21 20 20 19 18 18 17 17 16 16 16 15 15 15 14 14 14 13 13 13 12 12 12 12 12 12 12 12 12 12 13 13 13 14 14 14 15 15 16
23 22 22 21 21 21 20 19 18 18 17 16 16 15 15 15 15 14 14 14 14 14 14 13 12 12 12 12 12 12 12 12 12 12 12 12 13 13 14 14 14 15 15
23 23 22 22 21 21 20 20 19 18 17 16 16 15 15 14 14 14 14 13 13 14 13 13 12 12 12 12 11 11 11 11 11 12 12 12 12 12 13 13 13 14 14
24 24 23 23 22 21 20 20 19 18 17 16 16 15 15 14 14 14 14 13 13 13 13 12 12 12 11 11 11 11 11 11 11 11 11 11 12 12 12 12 13 13 13
25 24 24 23 22 21 21 20 19 18 17 16 16 15 15 14 14 13 13 13 13 12 12 12 12 11 11 11 11 11 11 11 11 11 11 11 11 11 12 12 12 12 12
25 25 24 23 22 21 20 19 18 18 17 16 15 15 15 14 13 13 13 13 12 12 12 12 11 11 11 11 11 11 11 11 11 11 11 11 11 11 11 11 11 12 12
26 25 24 23 22 21 20 19 18 17 17 16 15 15 14 14 13 13 13 12 12 12 12 12 11 11 11 11 11 11 11 11 11 10 10 11 11 11 11 11 11 11 11
26 25 24 23 22 21 20 19 18 17 17 16 15 15 14 14 13 13 13 12 12 12 12 11 11 11 11 11 11 11 11 10 10 10 10 10 10 10 10 10 10 11 11
26 25 24 23 22 21 20 20 18 18 17 16 16 15 14 14 13 13 13 12 12 12 12 11 11 11 11 11 11 10 10 10 10 10 10 10 10 10 10 10 10 10 10
26 25 24 22 22 21 20 19 19 18 17 17 16 15 15 14 13 13 13 12 12 12 11 11 11 11 11 11 10 10 10 10 10 10 10 10 10 10 10 10 10 10 10
25 24 23 22 21 20 20 19 18 18 17 17 16 15 15 14 14 13 13 12 12 12 11 11 11 11 11 11 11 11 10 10 10 10 10 10 10 10 10 10 10 10 10
25 24 23 22 21 20 19 19 18 17 17 16 16 15 15 14 14 13 13 13 12 12 12 11 11 11 11 11 11 11 10 10 10 10 10 9 9 10 10 10 10 10 9
25 24 23 22 21 20 19 19 18 17 17 16 16 15 15 14 14 14 13 13 12 12 12 11 11 11 11 10 10 10 10 10 10 10 10 9 9 10 10 9 9 9 9
25 25 24 22 21 20 19 19 18 17 17 16 16 15 15 15 14 14 13 13 12 12 12 11 11 11 11 10 10 10 10 10 10 10 9 9 9 9 9 9 9 9 9
25 25 24 23 22 21 20 19 18 18 17 16 16 16 15 15 14 14 13 13 13 12 12 12 11 11 11 10 10 10 10 10 10 9 9 9 9 9 9 9 9 9 9
25 24 24 23 22 21 20 19 18 18 17 17 16 16 16 15 15 14 14 13 13 13 12 12 11 11 11 11 10 10 10 10 9 9 9 9 9 9 9 9 9 8 8
24 24 23 23 22 21 20 19 19 18 18 17 17 16 16 15 15 15 14 13 13 12 12 12 12 11 11 11 11 10 10 10 9 9 9 9 9 9 9 9 8 8 8
24 23 23 22 22 21 20 19 19 18 17 17 16 16 16 15 15 14 14 13 13 12 12 12 12 12 12 11 11 11 10 10 9 9 9 9 8 8 8 8 8 8 8
23 22 22 22 21 20 20 19 18 18 17 16 16 16 16 15 15 15 14 13 13 12 12 12 12 12 12 12 11 11 10 10 9 9 9 8 8 8 8 8 8 8 8
21 21 21 21 20 20 19 18 18 17 17 16 16 16 16 15 15 14 14 13 13 13 13 13 12 12 12 11 11 10 10 9 9 9 9 8 8 8 8 8 8 8 8
20 20 20 20 19 19 18 17 17 16 16 16 16 15 15 14 14 14 14 14 13 13 13 13 12 12 11 11 11 10 10 9 9 9 8 8 8 8 8 8 8 8 8
18 18 18 18 18 18 17 17 16 16 16 15 15 15 14 14 14 14 14 14 14 14 13 13 12 12 12 11 11 10 10 10 9 9 9 8 8 8 8 8 8 8 8
Wind_Speed
11 11 11 12 12 10 9 7 7 5 2 1 0 1 2 2 2 2 6 3 4 5 5 4 5 4 4 5 5 5 6 5 4 4 5 6 8 8 7 6 5 5 7
11 10 10 11 11 10 8 7 7 6 4 3 1 1 1 3 2 1 3 2 3 4 6 5 5 5 5 5 4 4 4 6 5 4 5 5 6 3 4 3 4 4 2
13 12 10 10 11 11 10 9 8 7 5 2 2 2 1 3 2 2 1 3 3 3 4 4 4 5 6 5 5 5 5 5 6 5 3 3 4 6 4 4 2 2 3
13 12 11 10 11 10 10 7 7 6 4 3 2 3 3 3 3 1 1 2 2 3 2 2 3 4 5 6 6 5 5 6 5 5 4 3 3 3 4 5 4 2 3
13 13 13 11 10 10 8 8 7 6 4 3 2 3 3 4 4 4 3 2 4 4 4 2 1 3 5 5 5 5 5 5 6 5 5 5 4 5 5 6 6 5 4
13 13 12 11 9 8 8 9 9 7 5 4 3 2 2 3 4 5 5 4 3 2 2 1 1 3 4 4 5 5 6 5 5 5 5 6 5 5 4 5 6 5 5
13 12 11 11 10 8 8 9 10 8 6 4 3 1 2 3 5 6 5 3 4 2 2 2 2 3 4 4 5 5 6 6 6 5 5 5 6 5 5 5 6 6 6
13 12 12 10 10 9 8 8 9 7 5 4 3 1 1 4 4 2 4 4 4 4 2 2 3 4 5 6 5 5 6 6 5 7 6 5 6 6 5 5 5 6 6
12 12 11 9 9 8 7 7 9 7 5 3 3 4 4 4 4 4 5 5 3 5 4 4 5 5 5 5 6 5 6 6 6 6 7 5 5 5 5 5 5 5 7
12 11 11 10 10 9 8 8 8 7 4 4 4 4 3 4 4 5 5 5 5 5 5 6 6 6 6 6 6 6 7 6 6 6 7 6 6 6 5 5 5 5 6
12 11 10 10 10 10 10 8 8 7 6 5 4 2 2 3 4 4 5 5 5 5 6 6 7 7 7 7 6 7 8 8 7 7 8 7 7 6 5 6 5 6 6
11 11 12 10 10 10 10 10 8 8 7 6 5 5 5 5 5 5 4 4 5 6 6 6 6 7 8 7 6 7 8 7 8 8 8 8 8 8 7 6 7 7 7
8 9 11 10 9 8 8 9 9 8 7 7 7 6 6 6 5 5 5 5 6 6 6 6 7 7 7 7 7 7 7 7 8 8 8 8 8 8 7 7 7 7 8
8 8 10 9 8 7 7 6 6 6 6 6 6 6 5 5 4 5 5 5 6 6 7 6 7 7 8 8 8 8 7 7 8 8 8 8 8 9 8 8 8 8 8
9 9 9 9 8 7 7 7 6 6 5 4 5 5 5 5 4 5 5 5 6 8 7 6 7 7 8 8 5 5 7 6 7 8 8 9 10 11 9 10 7 7 6
9 10 10 11 10 9 8 8 7 7 7 6 5 5 4 4 5 5 6 6 6 6 6 7 7 8 9 2 1 4 7 7 8 9 9 9 11 13 15 16 15 12 10
9 10 11 11 11 10 9 9 8 7 7 7 6 6 6 6 5 6 5 5 5 6 7 7 7 8 8 8 8 8 6 8 9 9 9 11 13 10 8 10 13 15 17
7 9 10 11 12 12 12 9 10 9 8 8 8 7 6 6 5 5 5 5 5 6 6 7 8 8 10 9 10 10 8 9 10 11 11 11 11 12 9 8 8 9 10
5 6 9 12 12 13 12 11 10 10 10 9 9 8 7 6 5 5 5 5 5 6 7 8 8 8 8 9 11 11 7 8 11 11 12 11 10 10 9 8 8 9 9
4 6 8 8 11 11 12 12 11 10 10 10 8 7 6 5 5 6 5 6 6 7 8 8 8 8 8 9 11 12 7 9 9 9 9 12 11 9 8 7 8 9 9
2 5 6 7 9 10 10 10 10 10 9 8 7 6 6 6 7 7 6 6 7 8 8 9 9 9 11 12 13 15 9 8 8 8 7 5 3 5 8 9 8 10 9
1 3 4 5 7 9 9 9 8 7 6 6 6 6 6 7 7 6 6 6 8 9 9 10 11 10 9 10 11 16 16 12 8 8 8 4 2 5 9 9 11 12 9
1 2 3 4 5 7 7 8 7 6 6 6 6 6 6 7 6 7 8 8 8 10 9 8 7 6 4 5 11 15 16 16 10 9 11 10 11 11 10 15 17 12 9
5 4 1 1 3 5 7 7 6 7 7 7 7 7 7 8 9 9 9 9 9 8 7 6 6 5 5 3 3 5 8 11 11 10 11 14 16 14 14 13 11 10 10
10 8 6 3 1 2 3 5 6 6 7 8 7 8 9 10 9 9 10 10 9 8 7 6 6 7 7 2 3 3 5 5 3 4 7 9 9 9 9 9 9 9 9
10 10 9 8 6 3 1 3 4 5 6 7 8 9 9 9 9 9 10 16 17 16 16 15 12 9 10 10 9 9 9 8 5 4 9 10 10 10 9 8 8 9 9
Wind_Direction
144 144 147 145 141 140 142 147 141 135 160 129 1 12 27 359 356 95 103 67 25 13 316 325 349 321 331 345 326 329 315 301 278 285 291 280 262 241 230 231 239 234 229
149 150 157 154 151 153 155 156 160 164 185 148 141 209 293 290 277 49 118 101 46 358 330 25 334 346 338 306 308 309 305 309 320 320 311 306 296 325 264 224 217 230 236
158 162 170 167 165 167 172 179 173 166 182 184 240 286 261 270 298 20 67 73 28 341 334 333 336 340 320 329 339 319 318 313 316 308 301 311 335 338 319 321 272 218 234
162 168 178 180 180 176 177 173 163 164 168 195 263 298 299 309 328 345 44 49 310 273 289 311 327 331 315 315 317 3 338 319 310 311 305 283 310 306 319 320 316 276 244
171 175 181 183 185 179 171 166 157 156 168 202 239 270 311 337 356 2 343 324 275 237 225 211 280 316 296 314 332 325 318 312 309 316 319 309 288 251 260 292 309 308 286
177 179 184 178 180 178 170 162 151 157 169 196 234 252 304 327 326 318 304 295 291 257 185 177 96 304 304 327 320 310 299 294 302 305 304 305 300 296 289 287 295 297 300
180 181 186 178 177 182 171 155 149 158 171 194 208 244 328 316 274 261 277 305 309 325 69 37 353 298 302 293 282 287 286 288 290 288 280 289 298 299 297 293 296 300 300
183 184 184 180 176 175 168 157 149 153 166 188 178 166 273 277 288 355 352 321 303 311 339 297 274 271 274 283 294 294 283 278 279 279 280 281 280 284 288 287 291 295 294
183 182 175 172 165 165 157 148 138 147 168 190 165 193 216 246 293 314 282 278 305 302 322 325 302 286 276 272 276 273 279 282 277 277 280 271 276 278 275 281 279 276 285
183 178 171 168 161 154 140 135 138 152 170 195 209 223 193 220 234 256 286 300 297 294 298 288 286 284 280 272 264 268 269 271 269 264 268 273 271 278 286 282 278 271 271
183 175 168 159 155 153 148 148 149 158 178 203 203 244 258 269 269 258 259 267 277 286 282 279 278 277 275 269 261 260 264 265 264 267 268 264 263 265 274 279 276 273 269
178 168 160 153 158 164 161 161 165 177 185 191 188 205 225 240 252 264 274 283 283 283 286 286 285 284 284 282 275 270 272 271 272 270 270 270 271 263 258 263 269 270 270
169 163 153 154 165 170 168 169 177 187 185 183 187 202 216 233 239 257 270 277 282 283 284 286 286 286 287 282 274 268 267 267 270 272 272 272 271 271 266 266 268 274 276
162 163 149 153 162 163 160 170 186 183 185 185 194 204 215 234 245 255 262 269 277 280 277 277 280 283 284 279 274 272 268 266 267 268 268 268 266 265 264 265 259 263 270
167 167 157 155 161 164 165 176 187 183 189 190 208 214 216 224 236 248 255 263 270 278 282 285 284 282 279 278 293 293 286 293 292 284 276 271 266 262 258 263 263 271 273
179 177 172 168 173 177 181 184 188 186 178 195 220 224 221 235 242 247 248 252 260 272 275 276 281 282 284 308 293 281 298 295 289 284 281 280 271 259 246 244 247 249 256
189 182 179 177 176 181 184 188 187 185 185 194 213 221 220 232 239 255 265 272 275 276 275 274 276 277 278 265 248 245 265 278 277 277 277 279 279 290 277 256 248 247 247
194 183 181 176 177 181 184 187 187 187 194 200 210 217 221 233 238 246 258 265 269 273 275 274 274 273 275 260 240 237 249 268 269 267 266 265 267 273 273 275 267 258 253
185 175 184 186 179 182 181 182 193 190 199 207 208 214 219 228 237 249 257 264 267 270 271 273 268 269 269 251 234 224 254 266 270 268 268 264 262 259 249 252 262 266 266
178 177 188 185 172 176 175 180 194 197 204 210 206 207 209 220 234 245 253 260 263 268 271 270 269 272 274 258 231 212 245 266 274 276 272 269 263 251 231 240 255 265 270
187 180 185 183 172 168 172 184 197 204 204 204 201 203 207 214 226 235 238 246 258 265 269 275 272 265 260 255 234 214 231 255 273 283 291 299 293 238 234 239 251 260 275
219 199 184 181 163 164 175 192 205 206 201 201 204 209 214 232 241 230 236 245 255 263 264 261 261 258 250 238 224 213 220 239 260 272 281 292 233 249 249 246 251 256 264
322 241 193 181 165 165 176 200 206 202 206 207 214 220 224 226 235 242 246 249 248 254 260 263 266 268 259 222 210 213 222 231 241 262 278 289 273 262 256 250 250 250 250
6 359 349 189 171 175 191 203 199 196 206 214 220 224 230 235 232 234 241 248 252 255 259 271 282 285 278 253 189 201 224 234 242 258 271 269 261 254 255 261 252 239 240
15 12 6 356 352 188 203 210 203 200 214 224 230 235 241 247 243 235 236 242 246 248 251 263 274 280 283 240 169 261 280 292 321 312 286 280 276 266 254 250 249 243 237
18 14 6 360 354 343 275 246 224 219 229 239 242 247 250 251 249 244 244 234 232 235 225 226 237 253 254 253 243 244 250 257 262 276 274 276 275 274 270 265 262 251 244
Height
1521 1524 1527 1530 1532 1534 1537 1539 1542 1543 1545 1546 1547 1547 1548 1547 1547 1546 1544 1543 1542 1541 1540 1539 1538 1538 1538 1537 1536 1536 1535 1535 1535 1535 1534 1533 1531 1530 1530 1531 1533 1534 1534
1521 1524 1527 1530 1532 1534 1536 1538 1540 1542 1543 1544 1545 1545 1545 1546 1546 1545 1543 1542 1540 1539 1540 1538 1537 1536 1535 1535 1534 1534 1533 1533 1533 1533 1532 1531 1529 1527 1528 1528 1529 1530 1531
1519 1523 1526 1529 1531 1533 1535 1538 1539 1541 1542 1543 1543 1544 1544 1544 1544 1543 1542 1540 1539 1538 1537 1536 1535 1534 1534 1533 1533 1532 1531 1531 1531 1531 1532 1531 1528 1527 1526 1527 1527 1528 1528
1518 1522 1525 1528 1530 1532 1534 1536 1537 1539 1540 1541 1541 1542 1542 1542 1542 1541 1540 1538 1537 1537 1536 1534 1533 1532 1532 1531 1531 1531 1529 1529 1529 1529 1530 1530 1529 1529 1526 1525 1525 1526 1525
1516 1520 1523 1526 1529 1531 1533 1534 1536 1537 1538 1538 1539 1539 1539 1539 1539 1538 1537 1536 1536 1535 1534 1533 1532 1531 1530 1530 1529 1528 1527 1527 1527 1527 1527 1527 1527 1527 1527 1525 1524 1523 1523
1515 1518 1521 1524 1527 1530 1531 1532 1534 1535 1536 1536 1537 1537 1536 1536 1535 1535 1535 1535 1535 1534 1533 1532 1530 1529 1528 1527 1526 1525 1525 1524 1524 1524 1524 1524 1524 1524 1524 1523 1522 1521 1520
1512 1516 1519 1522 1525 1527 1530 1531 1532 1533 1534 1534 1535 1534 1534 1534 1533 1533 1533 1533 1533 1533 1531 1530 1528 1527 1526 1525 1524 1523 1522 1522 1521 1521 1521 1521 1521 1521 1521 1521 1519 1518 1517
1509 1513 1516 1519 1522 1525 1527 1529 1530 1531 1532 1532 1532 1532 1532 1532 1532 1532 1531 1531 1531 1530 1529 1528 1526 1524 1523 1522 1521 1520 1519 1519 1518 1518 1518 1517 1517 1517 1517 1517 1517 1515 1514
1506 1510 1514 1517 1520 1523 1525 1527 1528 1529 1530 1530 1530 1530 1530 1529 1529 1529 1529 1529 1528 1527 1526 1524 1523 1522 1521 1519 1518 1517 1516 1516 1515 1514 1514 1514 1513 1513 1513 1513 1513 1513 1511
1504 1507 1511 1514 1518 1521 1523 1525 1526 1527 1528 1528 1528 1529 1528 1528 1527 1526 1526 1525 1524 1524 1522 1521 1520 1518 1517 1516 1515 1514 1513 1512 1512 1511 1510 1510 1509 1509 1509 1509 1509 1509 1508
1500 1504 1508 1512 1515 1518 1520 1522 1524 1525 1525 1526 1526 1526 1526 1525 1525 1524 1523 1522 1521 1520 1519 1518 1516 1515 1514 1513 1511 1510 1509 1509 1508 1507 1506 1506 1505 1505 1504 1504 1504 1504 1504
1496 1500 1505 1509 1513 1516 1518 1520 1521 1522 1523 1523 1523 1523 1523 1522 1522 1521 1521 1520 1518 1517 1516 1514 1513 1512 1510 1509 1508 1506 1506 1505 1504 1503 1502 1501 1501 1500 1500 1499 1499 1499 1499
1494 1498 1502 1506 1510 1514 1516 1518 1519 1520 1521 1521 1521 1520 1520 1520 1519 1518 1517 1516 1515 1514 1512 1511 1509 1508 1506 1505 1504 1502 1501 1500 1499 1499 1498 1497 1496 1495 1495 1494 1494 1494 1494
1493 1497 1500 1504 1508 1511 1513 1515 1516 1517 1518 1518 1518 1518 1517 1517 1516 1515 1514 1513 1512 1510 1509 1507 1506 1504 1502 1501 1500 1498 1497 1496 1495 1494 1493 1492 1491 1490 1490 1489 1489 1489 1488
1491 1495 1499 1502 1505 1508 1510 1512 1513 1514 1515 1515 1515 1515 1515 1514 1513 1512 1511 1510 1508 1507 1505 1503 1502 1500 1499 1497 1496 1495 1494 1492 1490 1489 1488 1487 1486 1485 1485 1484 1484 1484 1483
1488 1492 1496 1499 1502 1504 1506 1508 1509 1510 1510 1511 1511 1511 1511 1510 1510 1509 1507 1506 1504 1503 1501 1499 1497 1496 1495 1494 1492 1490 1488 1486 1485 1483 1482 1481 1480 1480 1479 1478 1478 1478 1478
1485 1488 1492 1495 1497 1500 1502 1504 1505 1506 1506 1507 1507 1507 1507 1507 1506 1505 1504 1502 1500 1499 1497 1495 1493 1491 1490 1488 1486 1485 1483 1481 1479 1477 1476 1475 1475 1475 1474 1472 1472 1471 1471
1482 1485 1487 1490 1493 1495 1497 1499 1500 1501 1502 1502 1503 1503 1503 1503 1502 1501 1500 1498 1496 1494 1492 1490 1488 1486 1485 1483 1482 1480 1478 1475 1473 1472 1471 1470 1469 1468 1468 1466 1465 1465 1464
1479 1481 1484 1486 1488 1490 1492 1494 1496 1497 1497 1498 1498 1499 1499 1498 1497 1496 1495 1493 1492 1490 1487 1486 1484 1482 1480 1479 1477 1475 1473 1470 1468 1467 1466 1465 1464 1462 1462 1461 1459 1458 1457
1477 1478 1480 1482 1483 1485 1487 1489 1490 1492 1492 1493 1494 1494 1494 1493 1492 1491 1490 1489 1487 1485 1483 1481 1479 1478 1475 1474 1472 1470 1468 1466 1464 1463 1462 1460 1459 1457 1456 1455 1453 1452 1451
1474 1475 1477 1478 1479 1480 1482 1484 1485 1486 1488 1489 1489 1489 1489 1488 1487 1486 1485 1483 1482 1480 1478 1476 1474 1472 1470 1468 1467 1465 1463 1462 1459 1458 1456 1455 1453 1451 1450 1449 1447 1446 1445
1471 1472 1473 1475 1476 1477 1478 1479 1481 1483 1484 1485 1485 1484 1484 1483 1483 1482 1480 1478 1477 1475 1472 1471 1469 1467 1465 1463 1461 1460 1459 1457 1455 1453 1451 1449 1447 1445 1444 1442 1441 1440 1438
1470 1470 1471 1472 1473 1474 1475 1477 1478 1479 1480 1480 1480 1479 1479 1478 1477 1476 1475 1473 1472 1470 1468 1467 1465 1463 1461 1459 1456 1455 1453 1451 1449 1447 1445 1444 1441 1439 1437 1435 1434 1433 1431
1468 1468 1468 1469 1470 1471 1472 1473 1474 1474 1474 1474 1473 1473 1472 1471 1470 1469 1468 1467 1466 1465 1464 1462 1460 1458 1456 1454 1452 1449 1448 1446 1443 1441 1439 1437 1435 1432 1430 1429 1427 1426 1425
1468 1468 1468 1468 1468 1468 1468 1469 1470 1469 1469 1468 1468 1467 1466 1465 1464 1463 1462 1460 1459 1458 1457 1456 1454 1452 1450 1449 1447 1445 1443 1441 1439 1435 1433 1430 1428 1426 1424 1422 1421 1420 1419
1469 1468 1468 1467 1467 1467 1466 1466 1466 1465 1464 1463 1462 1461 1461 1459 1458 1456 1455 1453 1452 1451 1450 1449 1448 1445 1444 1442 1441 1439 1437 1434 1432 1429 1426 1424 1422 1420 1418 1416 1415 1413 1412